Location: Unspecified
(0.0000°N, 0.0000°E)
Time: 14:59:58
(UTC+00:00)

IRIDIUM 114 - Pass Details

Date: 16 November 2025
Orbit: 776 x 779 km, 86.4° (Epoch: 12 December)

Event Time Altitude Azimuth Distance (km) Brightness Sun altitude
Exits shadow 19:24:06 11° 144° (SE) 2,266 6.6 -23.4°
Drops below altitude 10° 19:24:20 10° 145° (SE) 2,339 6.7 -23.4°
Sets 19:27:00 0° 158° (SSE) 3,254 7.5 -24.1°
